Back to catalog

SL-14 DEB

AlivePO
NORAD 26025·DEBRIS·🇷🇺 Russia

Launched Sep 28, 1991 from Plesetsk Cosmodrome

Loading…

Next Passes (next 24 hours)

TLE

AgingSource: Space-Track

Epoch: Sep 9, 2026, 07:27 UTC

1 26025U 91068AL  26252.31110990  .00000054  00000-0  29586-3 0  9992
2 26025  82.7312  20.6687 0261628 129.6654 258.3184 12.36144003588249

Track SL-14 DEB in real time with AllMySat

Download on the App Store